This is the latest recevied weather packets stored in our database for station/object KB1WCR. If no packets are shown the sender has not sent any weather packets the latest 10 day(s).
| Time | Temp. | Humidity | Pressure | Rain* | Wind** | Luminosity | Snow |
|---|---|---|---|---|---|---|---|
| 1788268892 | 15.56° C | 89% | 1018.8 hPa | 0 mm | - | 126 W/m² | - |
| 1788268592 | 15.56° C | 88% | 1018.8 hPa | 0 mm | - | 122 W/m² | - |
| 1788268286 | 15.56° C | 89% | 1018.9 hPa | 0 mm | - | 123 W/m² | - |
| 1788267981 | 15° C | 90% | 1018.8 hPa | 0 mm | - | 127 W/m² | - |
| 1788267680 | 15° C | 90% | 1018.8 hPa | 0 mm | - | 113 W/m² | - |
| 1788267378 | 15° C | 91% | 1018.6 hPa | 0 mm | - | 106 W/m² | - |
| 1788267068 | 15° C | 92% | 1018.8 hPa | 0 mm | - | 105 W/m² | - |
| 1788266768 | 14.44° C | 92% | 1019 hPa | 0 mm | - | 88 W/m² | - |
| 1788266467 | 14.44° C | 92% | 1018.9 hPa | 0 mm | - | 80 W/m² | - |
| 1788266157 | 14.44° C | 93% | 1019.1 hPa | 0 mm | - | 82 W/m² | - |
| 1788265857 | 14.44° C | 94% | 1018.9 hPa | 0 mm | - | 83 W/m² | - |
| 1788265556 | 13.89° C | 99% | 1018.8 hPa | 0 mm | - | 85 W/m² | - |
| 1788265255 | 13.33° C | 99% | 1018.6 hPa | 0 mm | - | 122 W/m² | - |
| 1788264950 | 13.33° C | 99% | 1018.8 hPa | 0 mm | - | 131 W/m² | - |
| 1788264645 | 13.33° C | 99% | 1018.6 hPa | 0 mm | - | 106 W/m² | - |
| 1788264345 | 13.33° C | 99% | 1018.7 hPa | 0 mm | - | 99 W/m² | - |
| 1788264041 | 13.33° C | 99% | 1018.5 hPa | 0 mm | - | 78 W/m² | - |
| 1788263736 | 12.78° C | 99% | 1018.7 hPa | 0 mm | - | 66 W/m² | - |
| 1788263433 | 12.78° C | 99% | 1018.6 hPa | 0 mm | - | 59 W/m² | - |
| 1788263129 | 12.78° C | 99% | 1018.5 hPa | 0 mm | - | 62 W/m² | - |
| 1788262827 | 12.78° C | 99% | 1018.6 hPa | 0 mm | - | 51 W/m² | - |
| 1788262525 | 12.22° C | 99% | 1018.5 hPa | 0 mm | - | 46 W/m² | - |
| 1788262220 | 12.22° C | 99% | 1018.7 hPa | 0 mm | - | 43 W/m² | - |
| 1788261910 | 12.22° C | 99% | 1018.4 hPa | 0 mm | - | 40 W/m² | - |
| 1788261606 | 11.67° C | 99% | 1018.4 hPa | 0 mm | - | 36 W/m² | - |
* Rain latest hour (hover to see other rain measurements)
** Current wind speed in m/s (hover to see current wind gust speed)